Regional Weather Roundup
Issued by NWS Portland, ME

Home | Current Version | Previous Version | Text Only | Print | Product List | Glossary On
Versions: 1 2 3 4 5 6 7 8 9 10 11 12 13 14 15 16 17 18 19 20 21 22 23 24 25 26 27 28 29 30 31 32 33 34 35 36 37 38 39 40 41 42 43 44 45 46 47 48 49 50
000
ASUS41 KGYX 310510
RWRGYX
WEATHER ROUNDUP FOR MAINE AND NEW HAMPSHIRE
NATIONAL WEATHER SERVICE GRAY ME
100 AM EDT FRI OCT 31 2014

MEZ002-005-006-010-012-015-018-020-021-024-026-027-029-310600-
MAINE

CITY           SKY/WX    TMP DP  RH WIND       PRES   REMARKS
PORTLAND       CLEAR     36  32  85 CALM      30.02R
SANFORD        PTCLDY    28  25  86 W5        30.02R
BAR HARBOR     CLOUDY    37  37 100 W3        29.99R
WISCASSET      CLEAR     33  32  96 CALM      30.02R
ROCKLAND       CLOUDY    41  34  75 NW3       29.99R
FRYEBURG       CLEAR     27  25  92 CALM      30.01R
LEWISTONAUBURN CLEAR     30  27  86 CALM      30.00R
AUGUSTA        PTCLDY    38  31  76 W3        30.00R
WATERVILLE     CLEAR     34  28  80 CALM      29.97R
BANGOR         MOCLDY    35  32  88 CALM      29.99R
GREENVILLE       N/A     34  29  82 CALM      29.92S
MILLINOCKET    PTCLDY    34  31  88 CALM      29.98R
HOULTON        CLOUDY    39  33  79 CALM      29.95R
PRESQUE ISLE   CLOUDY    39  28  65 CALM      29.94R
FRENCHVILLE    CLOUDY    35  25  66 NW8       29.92R
CARIBOU        CLOUDY    39  28  64 NW5       29.93S
$$

NHZ002-005-008-009-011-012-014-310600-
NEW HAMPSHIRE

CITY           SKY/WX    TMP DP  RH WIND       PRES   REMARKS
PORTSMOUTH     MOCLDY    37  34  89 NW2       30.01R
ROCHESTER      MOCLDY    36  33  89 NW6       30.01R
NASHUA         CLOUDY    42  40  93 NW5       30.02R
MANCHESTER     CLOUDY    43  36  76 N6        30.00R
CONCORD        CLOUDY    37  35  92 CALM      30.01R
LACONIA        CLOUDY    39  34  81 CALM      29.99R
PLYMOUTH       CLOUDY    36  36 100 CALM      30.01R
BERLIN         CLOUDY    40  32  73 CALM      29.98S
WHITEFIELD     CLOUDY    37  35  92 CALM      29.99R
JAFFREY        CLOUDY    39  37  92 CALM      30.00R
LEBANON        CLOUDY    42  36  79 CALM      30.00S
MT WASHINGTON  MOCLDY    18  10  73 W12         N/A  WCI   5
$$

VTZ005-007-008-310600-
VERMONT

CITY           SKY/WX    TMP DP  RH WIND       PRES   REMARKS
ST JOHNSBURY     N/A     40  34  79 MISG      29.99R
MONTPELIER     CLOUDY    39  33  79 W3        30.03R
BURLINGTON     CLOUDY    44  32  62 CALM      30.02S
$$

MAZ007-012-024-CTZ003-RIZ002-NYZ038-NYZ072-310600-
SOUTHERN NEW ENGLAND AND NY

CITY           SKY/WX    TMP DP  RH WIND       PRES   REMARKS
BOSTON         MOCLDY    47  37  68 N6        30.00S
WORCESTER      CLEAR     41  35  79 NW7       29.99R
NANTUCKET      CLOUDY    50  43  77 CALM      29.97F
PROVIDENCE     CLEAR     42  36  79 CALM      30.00S
HARTFORD       CLEAR     41  33  73 CALM      30.01R
ALBANY         CLEAR     35  31  85 CALM      30.04S
NEW YORK CITY  PTCLDY    49  37  63 N8        30.02R
$$

ANZ081-ANZ082-ANZ150-NHZ014-MEZ023>029-310600-
COASTAL MARINE OBSERVATIONS

STATION/POSITION TIME  TEMP    WIND        PRES    WAVE
                       AIR SEA DIR/SP/G            HT/PER
                 (UTC) (F)     (DEG/KT/KT) (MB)    (FT/S)
MOUNT DESERT ROC 0500   47                 1014.7R
MATINICUS ROCK   0500          360/ 18/ 19 1014.9R
PORTLAND WX BUOY 0450   47 53   10/ 12/ 14 1016.1R   1/ 8
WELLS            0400   40 51  360/  2/  4 1015.1R
ISLE OF SHOALS   0400   48      30/ 15/ 16 1015.1R
JEFFREYS LEDGE   0451      54                N/A     3/ 4
CASHES LEDGE BUO 0450   49 55  360/ 14/ 16 1014.9R   4/ 4
$$

.............KEY..............
   WCI - WIND CHILL
   TC  - TEMPERATURE IN CELSIUS
   VSB - VISIBILITY IN MILES
   HX  - HEAT INDEX
   FAIR- INDICATES FEW OR NO CLOUDS BELOW 12,000 FT, WITH NO
         SIGNIFICANT WEATHER AND/OR OBSTRUCTIONS TO VISIBILITY.





USA.gov is the U.S. government's official web portal to all federal, state and local government web resources and services.